Location: Krasnoyarskiy Pitomnik
(51.1333°N, 71.6167°E)
Time: 20:12:20
(UTC+00:00)

SR - All Passes

Search period start: 12 April 2024 00:00
Search period end: 22 April 2024 00:00
Orbit: 576 x 864 km, 66.7° (Epoch: 12 April)

Date Brightness Start Highest point End Pass type
(mag) Time Alt. Az. Time Alt. Az. Time Alt. Az.
12 Apr - 00:04:08 10° SW 00:09:35 58° NW 00:14:39 10° NNE daylight
12 Apr - 01:48:37 10° WNW 01:52:28 20° NNW 01:56:09 10° NNE daylight
12 Apr - 03:33:56 10° NNW 03:36:17 13° N 03:38:34 10° NNE daylight
12 Apr - 05:16:26 10° NNW 05:20:04 20° NNE 05:23:30 10° ENE daylight
12 Apr - 06:58:05 10° NW 07:02:49 73° NE 07:07:11 10° SE daylight
12 Apr - 08:41:01 10° WNW 08:44:04 18° WSW 08:46:58 10° SSW daylight
12 Apr - 21:32:42 10° SSE 21:36:11 17° ESE 21:39:32 10° ENE visible
12 Apr - 23:11:54 10° SSW 23:17:29 84° SE 23:22:39 10° NE visible
13 Apr - 00:55:21 10° W 00:59:56 27° NNW 01:04:15 10° NNE daylight
13 Apr - 02:40:52 10° NW 02:43:29 14° N 02:46:01 10° NNE daylight
13 Apr - 04:24:26 10° NNW 04:27:25 16° NNE 04:30:16 10° NE daylight
13 Apr - 06:06:06 10° NNW 06:10:37 41° NE 06:14:48 10° ESE daylight
13 Apr - 07:48:14 10° NW 07:52:26 35° WSW 07:56:22 10° S daylight
13 Apr - 22:20:12 10° SSW 22:25:32 47° ESE 22:30:30 10° NE visible
14 Apr - 00:02:24 10° WSW 00:07:33 41° NW 00:12:21 10° NNE daylight
14 Apr - 01:47:28 10° WNW 01:50:44 16° NNW 01:53:52 10° NNE daylight
14 Apr - 03:32:12 10° NNW 03:34:39 13° N 03:37:00 10° NE daylight
14 Apr - 05:14:11 10° NNW 05:18:13 26° NNE 05:22:01 10° E daylight
14 Apr - 06:55:56 10° NW 07:00:35 71° SW 07:04:54 10° SSE daylight
14 Apr - 08:41:03 10° W 08:41:27 10° WSW 08:41:50 10° WSW daylight
14 Apr - 21:29:10 10° SSE 21:33:43 26° ESE 21:38:03 10° ENE visible
14 Apr - 23:09:50 10° SW 23:15:20 67° NW 23:20:26 10° NE visible
15 Apr - 00:54:03 10° WNW 00:58:05 21° NNW 01:01:55 10° NNE daylight
15 Apr - 02:39:31 10° NNW 02:41:50 13° N 02:44:05 10° NNE daylight
15 Apr - 04:22:15 10° NNW 04:25:40 19° NNE 04:28:54 10° ENE daylight
15 Apr - 06:03:52 10° NNW 06:08:32 61° NE 06:12:52 10° SE daylight
15 Apr - 07:46:30 10° WNW 07:49:56 21° WSW 07:53:13 10° SSW daylight
15 Apr - 20:39:17 10° SE 20:42:05 14° ESE 20:44:48 10° ENE visible
15 Apr - 22:17:44 10° SSW 22:23:15 72° SE 22:28:23 10° NE visible
16 Apr - 00:00:51 10° W 00:05:34 30° NW 00:10:01 10° NNE daylight
16 Apr - 01:46:18 10° NW 01:49:02 14° NNW 01:51:40 10° NNE daylight
16 Apr - 03:30:13 10° NNW 03:32:58 15° NNE 03:35:36 10° NE daylight
16 Apr - 05:11:54 10° NNW 05:16:16 35° NE 05:20:21 10° ESE daylight
16 Apr - 06:53:53 10° NW 06:58:14 42° WSW 07:02:18 10° S daylight
16 Apr - 21:26:10 10° S 21:31:19 40° ESE 21:36:09 10° NE visible
16 Apr - 23:07:58 10° WSW 23:13:14 46° NW 23:18:07 10° NNE visible
17 Apr - 00:52:51 10° WNW 00:56:18 17° NNW 00:59:34 10° NNE daylight
17 Apr - 02:37:52 10° NNW 02:40:11 13° N 02:42:24 10° NNE daylight
17 Apr - 04:19:58 10° NNW 04:23:49 23° NNE 04:27:27 10° E daylight
17 Apr - 06:01:39 10° NW 06:06:20 85° SW 06:10:39 10° SE daylight
17 Apr - 07:45:24 10° W 07:47:20 13° WSW 07:49:13 10° SW daylight
17 Apr - 20:35:22 10° SSE 20:39:33 22° ESE 20:43:32 10° ENE visible
17 Apr - 22:15:31 10° SW 22:21:02 77° NW 22:26:09 10° NE visible
17 Apr - 23:59:28 10° W 00:03:40 23° NNW 00:07:39 10° NNE daylight
18 Apr - 01:45:01 10° NNW 01:47:20 13° N 01:49:36 10° NNE daylight
18 Apr - 03:28:01 10° NNW 03:31:13 17° NNE 03:34:15 10° ENE daylight
18 Apr - 05:09:36 10° NNW 05:14:12 52° NE 05:18:28 10° ESE daylight
18 Apr - 06:52:01 10° WNW 06:55:45 26° WSW 06:59:19 10° SSW daylight
18 Apr - 19:46:12 10° ESE 19:47:56 11° ESE 19:49:39 10° E visible
18 Apr - 21:23:33 10° SSW 21:29:00 62° ESE 21:34:03 10° NE visible
18 Apr - 23:06:20 10° WSW 23:11:12 33° NW 23:15:44 10° NNE visible
19 Apr - 00:51:41 10° NW 00:54:32 15° NNW 00:57:17 10° NNE daylight
19 Apr - 02:35:55 10° NNW 02:38:27 14° NNE 02:40:55 10° NE daylight
19 Apr - 04:17:39 10° NNW 04:21:52 31° NE 04:25:49 10° E daylight
19 Apr - 05:59:31 10° NW 06:03:59 51° WSW 06:08:09 10° SSE daylight
19 Apr - 20:32:09 10° S 20:37:05 34° ESE 20:41:43 10° NE visible
19 Apr - 22:13:33 10° WSW 22:18:52 53° NW 22:23:49 10° NNE visible
19 Apr - 23:58:12 10° WNW 00:01:49 19° NNW 00:05:15 10° NNE daylight
20 Apr - 01:43:27 10° NNW 01:45:38 13° N 01:47:46 10° NNE daylight
20 Apr - 03:25:43 10° NNW 03:29:21 21° NNE 03:32:48 10° ENE daylight
20 Apr - 05:07:20 10° NW 05:12:00 81° NE 05:16:19 10° SE daylight
20 Apr - 06:50:32 10° WNW 06:53:09 15° WSW 06:55:42 10° SW daylight
20 Apr - 19:41:38 10° SSE 19:45:21 19° ESE 19:48:54 10° ENE visible
20 Apr - 21:21:12 10° SW 21:26:42 89° NW 21:31:48 10° NE visible
20 Apr - 23:04:51 10° W 23:09:13 25° NNW 23:13:19 10° NNE visible
21 Apr - 00:50:24 10° NW 00:52:48 13° N 00:55:07 10° NNE daylight
21 Apr - 02:33:44 10° NNW 02:36:41 16° NNE 02:39:31 10° ENE daylight
21 Apr - 04:15:19 10° NNW 04:19:48 44° NE 04:23:59 10° ESE daylight
21 Apr - 05:57:31 10° NW 06:01:31 31° WSW 06:05:17 10° S daylight
21 Apr - 20:29:21 10° SSW 20:34:41 52° ESE 20:39:39 10° NE visible
21 Apr - 22:11:47 10° WSW 22:16:46 37° NW 22:21:25 10° NNE visible
